Regional Weather Roundup
Issued by NWS Sioux Falls, SD

Home | Current Version | Previous Version | Text Only | Print | Product List | Glossary On
Versions: 1 2 3 4 5 6 7 8 9 10 11 12 13 14 15 16 17 18 19 20 21 22 23 24 25 26 27 28 29 30 31 32 33 34 35 36 37 38 39 40 41 42 43 44 45 46 47 48 49 50
000
ASUS43 KFSD 211910
RWRFSD

WEATHER ROUNDUP FOR SE SOUTH DAKOTA/SW MINNESOTA/NW IOWA
NATIONAL WEATHER SERVICE SIOUX FALLS SD
100 PM CST TUE FEB 21 2017

NOTE: "FAIR" INDICATES FEW OR NO CLOUDS BELOW 12,000 FEET WITH NO
SIGNIFICANT WEATHER AND OR OBSTRUCTIONS TO VISIBILITY.


SDZ038>040-050-052>070-212000-
SOUTHEAST SOUTH DAKOTA

CITY           SKY/WX    TMP DP  RH WIND       PRES   REMARKS
BROOKINGS      MOSUNNY   56  39  53 SW8       29.73F
CHAMBERLAIN    SUNNY     67  37  32 CALM      29.73
HURON          SUNNY     64  38  38 VRB6      29.71F
MADISON        FAIR      57  39  51 SW13      29.75F
MITCHELL       MOSUNNY   65  35  33 SW10      29.74F
SIOUX FALLS    MOSUNNY   61  40  45 S13G20    29.75F
WINNER         FAIR      73  35  25 W23G36    29.73F
YANKTON        SUNNY     70  30  23 S14G25    29.75F
$$

MNZ071-072-080-081-089-090-097-098-212000-
SOUTHWEST MINNESOTA

CITY           SKY/WX    TMP DP  RH WIND       PRES   REMARKS
FAIRMONT       MOSUNNY   60  46  59 S22G32    29.79F
JACKSON        MOSUNNY   59  41  51 S22G32    29.80F
LUVERNE        SUNNY     61  37  41 SW21      29.78F
MARSHALL       CLOUDY    56  41  57 SW18      29.72F
MONTEVIDEO     PTSUNNY   54  43  66 W13       29.72F
PIPESTONE      SUNNY     57  37  47 SW14      29.75F
REDWOOD FALLS  MOSUNNY   57  41  55 SW17G32   29.73F
TRACY          MOSUNNY   56  44  62 SW20G25   29.75F
WINDOM         MOSUNNY   63  43  48 SW20G32   29.77F
WORTHINGTON    SUNNY     58  44  60 SW21G31   29.78F
$$

IAZ001>003-012>014-020>022-031-032-NEZ013-014-SDZ071-212000-
NORTHWEST IOWA

CITY           SKY/WX    TMP DP  RH WIND       PRES   REMARKS
CHEROKEE       SUNNY     63  40  43 SW18G28   29.83F
DENISON        SUNNY     63  45  51 S16G22    29.88F
ESTHERVILLE    SUNNY     60  45  57 SW21      29.81F
LE MARS        SUNNY     64  43  45 S22G29    29.80F
ORANGE CITY    SUNNY     63  45  51 S23G30    29.80F
SHELDON        SUNNY     61  46  59 SW23G30   29.78F
SIOUX CITY     SUNNY     67  42  40 SW20G33   29.84F
SPENCER        SUNNY     62  44  51 S22G31    29.82F
STORM LAKE     SUNNY     61  45  55 SW20G29   29.86F
$$

ABBREVIATIONS USED IN REMARKS
   TC - TEMPERATURE IN CELSIUS
  WCI - WIND CHILL INDEX
   HX - HEAT INDEX
  VSB - VISIBILITY





USA.gov is the U.S. government's official web portal to all federal, state and local government web resources and services.